Погода в Теребени

Россия / Калужская область     53°25′43″N   35°15′54″E
темп.,
°C
ветер,
м/с
пор.,
м/с
влажн.,
%
обл.,
%
осадки,
мм/ч
давл.,
гПа
погр.,
м
20 сентября, пн
пн2000:00+8в3898100 0.1 1009400
03:00+8в3898100 0.1 1008407
06:00+8всв3898100 0.1 1007341
09:00+8всв41198100 1.4 1007421
12:00+10в41098100 2.8 1006547
15:00+11ююв3894100 4.1 1007628
18:00+9ююв2593100 0.3 1008274
21:00+8вюв2696100 0.3 1009234
21 сентября, вт
вт2100:00+8в3895100 0.1 1009364
03:00+8в3798100 1.2 1008472
06:00+8ю3697100 0.8 1008445
09:00+7ю3798100 1.2 1009445
12:00+7ю3695100 0.3 1010500
15:00+7ююз2593100 0.5 1011599
18:00+6ю1495100 0.1 1011312
21:00+6ююв1396100 0.2 1012201
22 сентября, ср
ср2200:00+6ююв0197100 0.1 101177
03:00+6всв0097100 0.4 101172
06:00+6ссз119795 0.1 101155
09:00+6ссв1293100 0.1 1011242
12:00+7ссв1289100 0.1 1012285
15:00+8с0189100 0.1 1012121
18:00+7ссз1194100 0.2 101221
21:00+7ююв1197100 0.8 101339
23 сентября, чт
чт2300:00+7в0197100 0.1 101344
03:00+7в1198100 0.6 1013107
06:00+7ю1198100 0.9 101391
09:00+7вюв0097100 2.2 101470
12:00+8в128899 0.6 1014248
15:00+9ююз0183100 1.3 1013389
18:00+8ююв0187100 1.0 101318
21:00+7ююв2694100 1.5 1014225
24 сентября, пт
пт2400:00+6ююв249681 0.3 1014152
03:00+6ююз2497100 0.4 1013144
06:00+6ююз1394100 0.1 1012135
09:00+6ююз269299 0.1 1012373
12:00+8ююз4877100 0.1 10101116
15:00+9ююз5967100 0.3 10091285
18:00+7ю5983100 0.3 1008951
21:00+6ю51395100 3.4 1007817